This demonstration page uses our WeatherBlox Daily Observations layout. Learn more.

38.89511, -77.03637

Hourly Observations for March 14, 2015

Temp ( °F °C ) Dew Point ( °F °C ) Humidity (%) Winds ( mph kmh ) Pressure ( in mb ) Visibility ( mi km ) Precip ( " mm )
12:09 am 00:09 Cloudy with Light Rain 45 7 39 4 81 81 S 5 7 30.33 1027 8 12.874752 0.001 0.001
12:23 am 00:23 Cloudy with Light Rain 45 7 41 5 87 87 SSE 3 6 30.33 1027 10 16.09344 0.01 0.254
12:52 am 00:52 Cloudy with Light Rain 45 7 41 5 87 87 S 8 13 30.33 1027 10 16.09344 0.01 0.254
1:43 am 01:43 Cloudy with Light Rain 45 7 41 5 87 87 S 8 13 30.3 1026 5 8.04672 0.01 0.254
1:52 am 01:52 Cloudy with Light Rain 45 7 41 5 87 87 S 7 11 30.3 1026 4 6.437376 0.02 0.508
2:07 am 02:07 Cloudy with Light Rain 45 7 41 5 87 87 S 7 11 30.27 1025 4 6.437376 0.01 0.254
2:32 am 02:32 Cloudy with Light Rain 45 7 43 6 93 93 S 7 11 30.27 1025 6 9.656064 0 0
2:47 am 02:47 Cloudy with Light Rain 45 7 43 6 93 93 S 7 11 30.27 1025 5 8.04672 0.05 1.27
2:52 am 02:52 Cloudy with Light Rain 45 7 41 5 87 87 S 8 13 30.24 1024 4 6.437376 0.05 1.27
3:52 am 03:52 Cloudy with Light Rain 45 7 43 6 93 93 S 8 13 30.21 1023 4 6.437376 0.1 2.54
4:09 am 04:09 Cloudy with Light Rain 45 7 43 6 93 93 S 8 13 30.21 1023 6 9.656064 0.03 0.762
4:18 am 04:18 Cloudy with Light Rain 45 7 43 6 93 93 S 7 11 30.21 1023 8 12.874752 0 0
4:52 am 04:52 Cloudy with Light Rain 45 7 43 6 93 93 S 6 9 30.18 1022 8 12.874752 0.08 2.032
5:52 am 05:52 Cloudy with Light Rain 46 8 43 6 87 87 SSW 6 9 30.18 1022 4 6.437376 0.04 1.016
6:52 am 06:52 Cloudy with Light Rain 45 7 43 6 93 93 S 8 13 30.15 1021 10 16.09344 0.03 0.762
7:52 am 07:52 Cloudy with Light Rain 46 8 43 6 87 87 S 8 13 30.12 1020 7 11.265408 0.03 0.762
8:52 am 08:52 Cloudy with Light Rain 46 8 43 6 87 87 S 7 11 30.09 1019 5 8.04672 0.04 1.016
9:07 am 09:07 Cloudy with Light Rain 46 8 43 6 87 87 S 8 13 30.09 1019 4 6.437376 0.02 0.508
9:52 am 09:52 Cloudy with Light Rain 46 8 43 6 87 87 S 12 19 30.06 1018 4 6.437376 0.06 1.524
10:52 am 10:52 Cloudy with Light Rain 48 9 45 7 87 87 S 12 19 30.03 1017 4 6.437376 0.05 1.27
11:52 am 11:52 Cloudy with Light Rain 50 10 46 8 88 88 S 12 19 29.97 1015 10 16.09344 0.05 1.27
12:18 pm 12:18 Cloudy 52 11 48 9 88 88 S 12 19 29.97 1015 10 16.09344 0 0
12:22 pm 12:22 Cloudy 52 11 48 9 88 88 S 10 17 29.97 1015 10 16.09344 0 0
12:52 pm 12:52 Cloudy 54 12 48 9 82 82 SSW 13 20 29.94 1014 10 16.09344 0 0
1:20 pm 13:20 Cloudy 54 12 48 9 82 82 S 12 19 29.91 1013 10 16.09344 0 0
1:52 pm 13:52 Cloudy 57 14 52 11 82 82 S 9 15 29.88 1012 10 16.09344 0 0
2:06 pm 14:06 Cloudy 55 13 50 10 82 82 S 13 20 29.88 1012 10 16.09344 0 0
2:40 pm 14:40 Cloudy 59 15 52 11 77 77 S 13 20 29.85 1011 10 16.09344 0 0
2:52 pm 14:52 Cloudy 57 14 52 11 82 82 S 10 17 29.83 1010 10 16.09344 0 0
2:56 pm 14:56 Cloudy 57 14 52 11 82 82 S 10 17 29.83 1010 10 16.09344 0 0
3:36 pm 15:36 Cloudy with Light Rain 55 13 52 11 88 88 S 10 17 29.83 1010 10 16.09344 0 0
3:52 pm 15:52 Cloudy with Light Rain 57 14 52 11 82 82 SSW 10 17 29.83 1010 10 16.09344 0.01 0.254
4:14 pm 16:14 Cloudy with Light Rain 55 13 52 11 88 88 S 8 13 29.8 1009 6 9.656064 0 0
4:36 pm 16:36 Cloudy with Light Rain 54 12 50 10 88 88 S 12 19 29.77 1008 7 11.265408 0 0
4:52 pm 16:52 Cloudy with Light Rain 54 12 52 11 94 94 S 12 19 29.77 1008 10 16.09344 0.04 1.016
5:16 pm 17:16 Mostly Cloudy 55 13 52 11 88 88 SSW 9 15 29.77 1008 10 16.09344 0.001 0.001
5:35 pm 17:35 Cloudy 57 14 54 12 88 88 SSW 6 9 29.77 1008 10 16.09344 0.001 0.001
5:52 pm 17:52 Cloudy 57 14 54 12 88 88 SW 8 13 29.8 1009 10 16.09344 0.001 0.001
6:52 pm 18:52 Cloudy 55 13 52 11 88 88 SSW 5 7 29.8 1009 10 16.09344 0 0
7:52 pm 19:52 Cloudy with Mist and Fog 54 12 52 11 94 94 SSE 5 7 29.8 1009 6 9.656064 0 0
8:16 pm 20:16 Cloudy 55 13 52 11 88 88 S 5 7 29.8 1009 9 14.484096 0 0
8:52 pm 20:52 Cloudy 54 12 52 11 94 94 S 5 7 29.8 1009 9 14.484096 0 0
9:30 pm 21:30 Cloudy 54 12 50 10 88 88 S 7 11 29.83 1010 10 16.09344 0 0
9:52 pm 21:52 Cloudy 55 13 52 11 88 88 SW 3 6 29.83 1010 10 16.09344 0 0
10:52 pm 22:52 Cloudy 55 13 52 11 88 88 WNW 6 9 29.83 1010 10 16.09344 0 0
11:52 pm 23:52 Cloudy 59 15 46 8 63 63 WNW 8 13 29.83 1010 10 16.09344 0 0

Powered by AerisWeather